332  
ASUS45 KCYS 310710  
RWRWY  
 
WYOMING REGIONAL WEATHER ROUNDUP  
NATIONAL WEATHER SERVICE CHEYENNE WY  
100 AM MDT SUN MAY 31 2020  
 
NOTE: "FAIR" INDICATES FEW OR NO CLOUDS BELOW 12,000 FEET  
WITH NO SIGNIFICANT WEATHER AND/OR S TO VISIBILITY
.  
 
WYZ001-310800-   
..YELLOWSTONE NATIONAL PARK
 
 
 
CITY SKY/WX TMP DP RH WIND PRES REMARKS
 
LK YELLOWSTONE N/A 48 42 80 CALM 30.20R  
W YELLOWSTONE NOT AVBL  
 

 
WYZ002>013-054>058-071-098>099-310800-   
..NORTHERN WYOMING
 
 
 
CITY SKY/WX TMP DP RH WIND PRES REMARKS
 
JACKSON CLOUDY 63 43 48 VRB7 30.12R  
CODY MOCLDY 64 49 57 SE10 30.00F  
GREYBULL MOCLDY 70 47 43 E9G18 29.95F  
WORLAND MOCLDY 69 48 47 SE12G18 29.98F  
SHERIDAN MOCLDY 63 56 78 CALM 29.90S  
BUFFALO CLOUDY 74 42 31 SW18G30 29.97F  
GILLETTE CLOUDY 61 54 77 S29G38 29.98F  
HULETT FAIR 63 54 72 SE3 30.03F  
NEWCASTLE FAIR 63 50 63 SE18G25 30.08F  
 

 
WYZ014>020-022>026-101>103-310800-   
..CENTRAL WYOMING
 
 
 
CITY SKY/WX TMP DP RH WIND PRES REMARKS
 
BIG PINEY MOCLDY 51 49 92 E15 30.18F  
PINEDALE LGT RAIN 50 50 100 NE16 30.24F  
DUBOIS LGT RAIN 57 41 54 SW16 30.20R  
LANDER CLOUDY 64 49 57 S12 30.07R  
RIVERTON LGT RAIN 60 54 80 E8 30.10S  
CASPER MOCLDY 57 50 77 NW8 30.09F  
DOUGLAS MOCLDY 63 49 60 E12 30.07R  
 

 
WYZ021-027>030-104>119-310800-   
..SOUTHERN WYOMING
 
 
 
CITY SKY/WX TMP DP RH WIND PRES REMARKS
 
EVANSTON MOCLDY 57 44 62 SE5 30.12F  
KEMMERER MOCLDY 54 45 71 N14G25 30.16S  
FORT BRIDGER NOT AVBL  
ROCK SPRINGS MOCLDY 57 45 64 N6 30.18S  
DIXON FAIR 54 43 67 E15 30.18S  
RAWLINS CLOUDY 58 50 75 E14 30.19F  
SARATOGA FAIR 57 46 67 S8 30.21F  
LARAMIE MOCLDY 53 48 83 S5 30.24F  
CHEYENNE MOCLDY 61 52 72 S10G21 30.21S  
TORRINGTON MOCLDY 62 57 83 SE13 30.10F  
PINE BLUFFS FAIR 59 55 88 SE12 30.16F  
 

 
 
 
CLICK HERE TO GO TO PREVIOUS BULLETINS.

The Nexlab WY Page Main Text Page